DW6599 Weather Reports


time (UTC)temp
C
wind
direction
speed
KPH
gust
KPH
rain 1hr
cm
rain 24hr
cm
rain mn
cm
humidity
%
barometer
mb
20260505092900 23 190 12.9 12.9 0.00 0.00 0.00 66 1001.0
20260505092400 23 190 12.9 12.9 0.00 0.00 0.00 66 1001.1
20260505091901 23 190 12.9 12.9 0.00 0.00 0.00 66 1001.3
20260505091401 23 190 12.9 12.9 0.00 0.00 0.00 66 1001.3
20260505090401 23 190 12.9 29.0 0.00 0.00 0.00 66 1001.2
20260505085900 23 190 16.1 29.0 0.00 0.00 0.00 66 1001.2
20260505085401 23 190 16.1 29.0 0.00 0.00 0.00 66 1001.3
20260505084901 23 190 16.1 32.2 0.00 0.00 0.00 66 1001.3
20260505084400 23 190 20.9 32.2 0.00 0.00 0.00 66 1001.2
20260505083901 23 190 20.9 32.2 0.00 0.00 0.00 66 1001.1
20260505083400 23 190 20.9 32.2 0.00 0.00 0.00 66 1001.1
20260505082901 23 190 20.9 20.9 0.00 0.00 0.00 66 1001.1
20260505082401 23 190 20.9 20.9 0.00 0.00 0.00 66 1001.1
20260505081401 23 190 20.9 20.9 0.00 0.00 0.00 66 1001.1
20260505080901 23 190 20.9 20.9 0.00 0.00 0.00 66 1001.2
20260505080401 23 190 20.9 38.6 0.00 0.00 0.00 66 1001.2
20260505075901 23 190 24.1 38.6 0.00 0.00 0.00 66 1001.3
20260505075401 23 190 24.1 38.6 0.00 0.00 0.00 66 1001.3
20260505074901 23 190 24.1 38.6 0.00 0.00 0.00 66 1001.4
20260505074400 23 190 24.1 38.6 0.00 0.00 0.00 66 1001.5
20260505073900 23 190 24.1 38.6 0.00 0.00 0.00 66 1001.5
20260505073401 23 190 24.1 45.1 0.00 0.00 0.00 66 1001.6
20260505072901 23 190 20.9 45.1 0.00 0.00 0.00 66 1001.8
20260505072401 23 190 20.9 45.1 0.00 0.00 0.00 66 1001.9
20260505071900 23 190 20.9 45.1 0.00 0.00 0.00 66 1002.0
20260505071401 23 190 20.9 45.1 0.00 0.00 0.00 66 1002.1
20260505070901 23 190 20.9 45.1 0.00 0.00 0.00 66 1002.2
20260505070401 23 190 20.9 45.1 0.00 0.00 0.00 66 1002.2
20260505065901 23 190 19.3 37.0 0.00 0.00 0.00 66 1002.4
20260505065401 23 190 19.3 37.0 0.00 0.00 0.00 66 1002.3
20260505064401 23 190 19.3 29.0 0.00 0.00 0.00 66 1002.5
20260505063900 23 190 19.3 29.0 0.00 0.00 0.00 66 1002.6
20260505063400 23 190 19.3 37.0 0.00 0.00 0.00 66 1002.7
20260505062901 23 190 19.3 37.0 0.00 0.00 0.00 66 1002.7
20260505062401 23 190 19.3 37.0 0.00 0.00 0.00 66 1002.7
20260505061901 23 190 19.3 37.0 0.00 0.00 0.00 66 1002.7
20260505060901 23 190 19.3 37.0 0.00 0.00 0.00 66 1002.7
20260505060401 23 190 19.3 37.0 0.00 0.00 0.00 66 1002.6
20260505055901 23 180 22.5 37.0 0.00 0.00 0.00 66 1002.7
20260505055401 23 180 22.5 37.0 0.00 0.00 0.00 66 1002.7
20260505054901 23 180 22.5 41.8 0.00 0.00 0.00 66 1002.8
20260505054401 23 180 19.3 41.8 0.00 0.00 0.00 66 1002.8
20260505053401 23 180 19.3 41.8 0.00 0.00 0.00 66 1002.9
20260505052901 23 180 24.1 37.0 0.00 0.00 0.00 66 1002.9
20260505052401 23 180 24.1 37.0 0.00 0.00 0.00 66 1003.0
20260505051901 23 180 24.1 37.0 0.00 0.00 0.00 66 1003.0
20260505050901 23 180 24.1 37.0 0.00 0.00 0.00 66 1003.2
20260505050401 23 180 24.1 40.2 0.00 0.00 0.00 66 1003.2
20260505041401 23 170 19.3 40.2 0.00 0.00 0.00 66 1003.4
20260505040902 23 170 19.3 40.2 0.00 0.00 0.00 66 1003.4
20260505040401 23 170 19.3 40.2 0.00 0.00 0.00 66 1003.3
20260505035901 23 170 22.5 40.2 0.00 0.00 0.00 66 1003.3
20260505035402 23 170 22.5 40.2 0.00 0.00 0.00 66 1003.2
20260505034901 23 170 22.5 40.2 0.00 0.00 0.00 66 1003.2
20260505033901 23 170 19.3 19.3 0.00 0.00 0.00 66 1003.3
20260505033401 23 170 19.3 20.9 0.00 0.00 0.00 66 1003.4
20260505031901 23 170 20.9 20.9 0.00 0.00 0.00 66 1003.4
20260505031401 23 170 20.9 20.9 0.00 0.00 0.00 66 1003.5
20260505030901 23 170 20.9 20.9 0.00 0.00 0.00 66 1003.4
20260505030401 23 170 20.9 20.9 0.00 0.00 0.00 66 1003.5
20260505025901 23 170 16.1 16.1 0.00 0.00 0.00 66 1003.5
20260505025401 23 170 16.1 16.1 0.00 0.00 0.00 66 1003.4
20260505024902 23 170 16.1 16.1 0.00 0.00 0.00 66 1003.4
20260505024401 23 170 14.5 14.5 0.00 0.00 0.00 66 1003.4
20260505023901 23 170 14.5 14.5 0.00 0.00 0.00 66 1003.4
20260505023401 23 170 14.5 32.2 0.00 0.00 0.00 66 1003.5
20260505022901 23 170 19.3 32.2 0.00 0.00 0.00 66 1003.5
20260505022401 23 170 19.3 32.2 0.00 0.00 0.00 66 1003.5
20260505021901 23 170 19.3 32.2 0.00 0.00 0.00 66 1003.5
20260505021401 23 170 19.3 32.2 0.00 0.00 0.00 66 1003.4
20260505020401 23 170 19.3 32.2 0.00 0.00 0.00 66 1003.5
20260505015901 23 160 14.5 14.5 0.00 0.00 0.00 66 1003.5
20260505015401 23 160 14.5 14.5 0.00 0.00 0.00 66 1003.3
20260505014902 23 160 14.5 14.5 0.00 0.00 0.00 66 1003.2
20260505013902 23 170 14.5 14.5 0.00 0.00 0.00 66 1003.2
20260505013401 23 170 14.5 32.2 0.00 0.00 0.00 66 1003.2
20260505012402 23 170 16.1 32.2 0.00 0.00 0.00 66 1003.2
20260505011901 23 170 16.1 32.2 0.00 0.00 0.00 65 1003.2
20260505011402 23 170 16.1 32.2 0.00 0.00 0.00 65 1003.1
20260505010901 24 170 16.1 32.2 0.00 0.00 0.00 65 1003.1
20260505010401 24 170 16.1 32.2 0.00 0.00 0.00 64 1003.0
20260505005901 24 170 19.3 19.3 0.00 0.00 0.00 64 1003.0
20260505005401 24 170 19.3 19.3 0.00 0.00 0.00 64 1002.9
20260505004902 24 170 19.3 33.8 0.00 0.00 0.00 64 1002.9
20260505004401 25 170 20.9 33.8 0.00 0.00 0.00 63 1002.9
20260505003901 25 170 20.9 33.8 0.00 0.00 0.00 63 1003.0
20260505003402 25 170 20.9 37.0 0.00 0.00 0.00 63 1003.1
20260505001401 25 170 22.5 37.0 0.00 0.00 0.00 61 1003.1
20260505000901 25 170 22.5 37.0 0.00 0.00 0.00 61 1003.2
20260504235901 25 170 22.5 32.2 0.00 0.00 0.00 60 1003.2
20260504235402 25 170 22.5 32.2 0.00 0.00 0.00 60 1003.2
20260504234901 25 170 22.5 45.1 0.00 0.00 0.00 59 1003.3
20260504233901 26 160 24.1 45.1 0.00 0.00 0.00 58 1003.5
20260504232901 26 170 29.0 45.1 0.00 0.00 0.00 57 1003.5
20260504231901 26 170 29.0 45.1 0.00 0.00 0.00 56 1003.6
20260504231401 27 170 29.0 45.1 0.00 0.00 0.00 55 1003.6
20260504230902 27 170 29.0 45.1 0.00 0.00 0.00 55 1003.8
20260504230401 27 170 29.0 46.7 0.00 0.00 0.00 55 1003.8
20260504225902 27 170 25.7 46.7 0.00 0.00 0.00 54 1003.7
20260504224902 27 170 25.7 46.7 0.00 0.00 0.00 54 1003.7
20260504223902 27 170 25.7 40.2 0.00 0.00 0.00 53 1003.8
20260504223401 27 170 25.7 40.2 0.00 0.00 0.00 52 1003.8
20260504222902 27 180 20.9 40.2 0.00 0.00 0.00 54 1003.8
20260504222402 27 180 20.9 40.2 0.00 0.00 0.00 53 1003.7
20260504221401 27 180 20.9 40.2 0.00 0.00 0.00 52 1003.9
20260504220901 27 180 20.9 40.2 0.00 0.00 0.00 52 1003.9
20260504215901 28 180 16.1 41.8 0.00 0.00 0.00 54 1004.1
20260504215401 27 180 16.1 41.8 0.00 0.00 0.00 53 1004.1
20260504214902 27 180 16.1 45.1 0.00 0.00 0.00 54 1004.2
20260504213901 27 180 27.4 45.1 0.00 0.00 0.00 53 1004.4
20260504213401 27 180 27.4 51.5 0.00 0.00 0.00 54 1004.5
20260504212901 27 180 29.0 51.5 0.00 0.00 0.00 53 1004.6
20260504212402 27 180 29.0 51.5 0.00 0.00 0.00 54 1004.8
20260504211902 27 180 29.0 51.5 0.00 0.00 0.00 53 1004.9
20260504211401 27 180 29.0 51.5 0.00 0.00 0.00 55 1005.1
20260504210901 27 180 29.0 51.5 0.00 0.00 0.00 52 1005.1
20260504210402 27 180 29.0 51.5 0.00 0.00 0.00 52 1005.3
20260504205902 27 190 29.0 29.0 0.00 0.00 0.00 53 1005.3
20260504205402 27 190 29.0 29.0 0.00 0.00 0.00 53 1005.4
20260504204902 27 190 29.0 41.8 0.00 0.00 0.00 52 1005.5
20260504204401 27 180 22.5 41.8 0.00 0.00 0.00 52 1005.4
20260504203901 27 180 22.5 41.8 0.00 0.00 0.00 52 1005.4
20260504203402 27 180 22.5 51.5 0.00 0.00 0.00 52 1005.7
20260504202902 27 180 25.7 51.5 0.00 0.00 0.00 53 1005.8
20260504202401 27 180 25.7 51.5 0.00 0.00 0.00 54 1005.8
20260504201902 27 180 25.7 51.5 0.00 0.00 0.00 53 1005.9
20260504201402 27 180 25.7 51.5 0.00 0.00 0.00 53 1006.0
20260504200901 27 180 25.7 51.5 0.00 0.00 0.00 54 1006.2
20260504200402 27 180 25.7 53.1 0.00 0.00 0.00 52 1006.2
20260504195902 27 180 33.8 53.1 0.00 0.00 0.00 53 1006.4
20260504195402 26 180 33.8 53.1 0.00 0.00 0.00 53 1006.4
20260504194901 26 180 33.8 53.1 0.00 0.00 0.00 54 1006.6
20260504194402 26 170 24.1 48.3 0.00 0.00 0.00 54 1006.7
20260504193902 26 170 24.1 48.3 0.00 0.00 0.00 53 1006.7
20260504193402 26 170 24.1 48.3 0.00 0.00 0.00 53 1006.8
20260504192901 26 200 25.7 45.1 0.00 0.00 0.00 54 1006.8
20260504191902 26 200 25.7 45.1 0.00 0.00 0.00 54 1007.0
20260504191401 26 200 25.7 45.1 0.00 0.00 0.00 54 1007.1
20260504190901 26 200 25.7 45.1 0.00 0.00 0.00 54 1007.2
20260504190402 26 200 25.7 45.1 0.00 0.00 0.00 55 1007.1
20260504185902 26 190 24.1 41.8 0.00 0.00 0.00 53 1007.2
20260504185402 26 190 24.1 41.8 0.00 0.00 0.00 54 1007.3
20260504184902 26 190 24.1 41.8 0.00 0.00 0.00 54 1007.5
20260504184402 26 190 24.1 41.8 0.00 0.00 0.00 54 1007.5
20260504183902 26 190 24.1 41.8 0.00 0.00 0.00 55 1007.6
20260504183402 26 190 24.1 48.3 0.00 0.00 0.00 55 1007.7
20260504182902 26 190 27.4 48.3 0.00 0.00 0.00 54 1007.8
20260504182401 26 190 27.4 48.3 0.00 0.00 0.00 53 1007.8
20260504181902 26 190 27.4 48.3 0.00 0.00 0.00 54 1007.9
20260504181402 26 190 27.4 48.3 0.00 0.00 0.00 55 1008.0
20260504180902 26 190 27.4 48.3 0.00 0.00 0.00 54 1008.1
20260504180401 26 190 27.4 48.3 0.00 0.00 0.00 54 1008.1
20260504175902 26 180 24.1 41.8 0.00 0.00 0.00 53 1008.3
20260504175402 26 180 24.1 41.8 0.00 0.00 0.00 55 1008.3
20260504174402 25 180 27.4 46.7 0.00 0.00 0.00 55 1008.5
20260504173402 25 180 27.4 48.3 0.00 0.00 0.00 55 1008.8
20260504172901 25 200 27.4 48.3 0.00 0.00 0.00 56 1008.8
20260504172402 25 200 27.4 48.3 0.00 0.00 0.00 55 1008.9
20260504171902 25 200 27.4 48.3 0.00 0.00 0.00 56 1009.0
20260504171401 24 200 27.4 48.3 0.00 0.00 0.00 56 1009.1
20260504170902 24 200 27.4 48.3 0.00 0.00 0.00 57 1009.2
20260504170402 24 200 27.4 51.5 0.00 0.00 0.00 54 1009.3
20260504160402 23 190 29.0 53.1 0.00 0.00 0.00 56 1009.9
20260504150401 21 200 16.1 40.2 0.00 0.00 0.00 40 1010.4
20260504140902 21 180 14.5 37.0 0.00 0.00 0.00 40 1011.0
20260504140402 21 180 14.5 37.0 0.00 0.00 0.00 40 1010.9
20260504130402 21 180 16.1 16.1 0.00 0.00 0.00 40 1011.0